Content
SEND FEEDBACK

Daily
Averages
Monthly
Summary
United States of America

BOSTON, MASSACHUSETTS


Home > North America > United States > Massachusetts
Elevation: 1 meter     Latitude: 42 22N     Longitude: 071 02W

WEATHER
 
SELECT A DAY
Number of Records: 202,868;   Date Range: 1/1/95 - 8/28/14
 
SHARE

PRINT THIS DATA

[ ← Previous Day ]
WEATHER ALMANAC - 20 MARCH, 2013
[ Next Day → ]
[ °F ]   °C
Weather ElementAverageHighLow
Temperature0.3 °C3.3 °C (3:54 pm)-3.3 °C (3:54 am)
Dewpoint-7.5 °C-5.6 °C (1:54 am)-8.9 °C (1:54 pm)
Humidity57.9 %81 % (1:54 am)41 % (3:54 pm)
Barometer1007.5 hPa1009.8 hPa (10:54 pm)1005.8 hPa (1:54 am)
Wind Speed23.5 km/h37 km/h (8:54 am)
Wind Gust51.8 km/h (10:54 am)
Weather ElementAverage
Visibility16.1 km
Wind DirectionWSW (264.2 °)

Weather ElementTotal
Precipitation---
Heating Degree Days18.3 (Base 18.3)
Averaged from 24 records on 20 March, 2013
WEATHER CONDITIONS BREAKOUT
WIND DIRECTION BREAKOUT
WEATHER BY HOUR - 20 MARCH, 2013
[ °F ]   °C
Local TimeTemperatureDewpointHumidityBarometerVisibilityWind DirectionWind SpeedGust SpeedPrecipitationEventsConditions
1:54 AM-2.8 °C-5.6 °C81 %1005.8 hPa16.1 kmNW (320°)24.1 km/hMostly Cloudy
2:54 AM-2.8 °C-6.1 °C78 %1006.4 hPa16.1 kmWNW (300°)18.5 km/hPartly Cloudy
3:54 AM-3.3 °C-6.1 °C81 %1006.8 hPa16.1 kmWNW (290°)11.1 km/hPartly Cloudy
4:33 AM-2 °C-6 °C74 %1006.8 hPa16.1 kmWest (270°)13 km/hOvercast
4:54 AM-2.2 °C-6.1 °C75 %1006.8 hPa16.1 kmWSW (250°)11.1 km/hOvercast
5:54 AM-1.7 °C-6.7 °C69 %1007.1 hPa16.1 kmWest (260°)20.4 km/h33.3 km/hOvercast
6:54 AM-2.2 °C-7.2 °C69 %1007.5 hPa16.1 kmWest (260°)25.9 km/h38.9 km/hPartly Cloudy
7:54 AM-1.7 °C-7.2 °C67 %1007.5 hPa16.1 kmWest (260°)27.8 km/h44.4 km/hScattered Clouds
8:54 AM-1.1 °C-7.2 °C64 %1007.1 hPa16.1 kmWest (270°)37 km/h48.1 km/hPartly Cloudy
9:54 AM-0.6 °C-7.2 °C61 %1007.5 hPa16.1 kmWest (280°)25.9 km/h46.3 km/hPartly Cloudy
10:54 AM0 °C-7.8 °C56 %1007.5 hPa16.1 kmWest (280°)33.3 km/h51.8 km/hPartly Cloudy
11:54 AM1.1 °C-7.8 °C52 %1007.5 hPa16.1 kmWest (270°)35.2 km/h48.1 km/hPartly Cloudy
12:54 PM2.2 °C-8.3 °C46 %1007.5 hPa16.1 kmWest (260°)37 km/h51.8 km/hScattered Clouds
1:54 PM2.2 °C-8.9 °C44 %1007.5 hPa16.1 kmWest (270°)33.3 km/h51.8 km/hScattered Clouds
2:54 PM2.8 °C-8.9 °C42 %1006.8 hPa16.1 kmWest (260°)35.2 km/h51.8 km/hPartly Cloudy
3:54 PM3.3 °C-8.9 °C41 %1006.8 hPa16.1 kmWest (260°)35.2 km/h46.3 km/hPartly Cloudy
4:54 PM3.3 °C-8.9 °C41 %1007.1 hPa16.1 kmWest (280°)25.9 km/hPartly Cloudy
5:54 PM3.3 °C-8.9 °C41 %1007.8 hPa16.1 kmWest (280°)24.1 km/h40.7 km/hPartly Cloudy
6:54 PM2.8 °C-8.3 °C44 %1008.5 hPa16.1 kmWSW (240°)22.2 km/h37 km/hMostly Cloudy
7:54 PM2.2 °C-7.8 °C48 %1008.8 hPa16.1 kmWest (260°)14.8 km/hClear
8:54 PM1.7 °C-7.8 °C50 %1009.1 hPa16.1 kmWSW (250°)9.3 km/hClear
9:54 PM1.1 °C-7.8 °C52 %1009.5 hPa16.1 kmSW (220°)16.7 km/hClear
10:54 PM0 °C-7.2 °C59 %1009.8 hPa16.1 kmSW (220°)13 km/hPartly Cloudy
11:54 PM0.6 °C-7.8 °C54 %1009.5 hPa16.1 kmSW (230°)13 km/hPartly Cloudy
Hourly data recorded from KBOS, located 0 kilometers away from Boston, Massachusetts







STORIES FROM OUR PARTNERS